sat.trackr.live / text

‹ back to catalog

YAOGAN-36 04B

NORAD 54748 · 2022-171C

PAYLOAD ACTIVE UNKNOWN

§ Identity

Operator
Country
PRC
Launch date
2022-12-14
Launch site
XICLF
Launch vehicle
Mass (kg)
RCS (m²)

External: N2YO · Heavens-Above · Gunter

§ Orbital elements

Epoch: 2026-09-20T14:22:15.245184Z

Period
94.56 min
Inclination
35.0060°
Eccentricity
0.0006223
Mean motion
15.22766431 rev/d
Perigee alt
493.2 km
Apogee alt
501.8 km
Semi-major
6,875.6 km
B*
2.2508e-4
RAAN
314.9447°
Arg perigee
319.3662°
Mean anomaly
40.6587°
Rev number
20,994

§ Raw data

YAOGAN-36 04B1 54748U 22171C   26263.59878756  .00005354  00000+0  22508-3 0  99912 54748  35.0060 314.9447 0006223 319.3662  40.6587 15.22766431209940

JSON: /api/v1/satellites/54748 · /tle

For live sub-satellite position, see the globe view (requires WebGL).

§ Visibility from observer

Set your observer location to see the next 7 days of passes ≥ 10°. The values pass through the URL so the page stays shareable.

No JS? Fill the form by hand. The geolocation button needs JavaScript.